カタログに戻る

Prox-1

PROX-1

運用中アマチュア無線VLEO
NORAD 44339·PAYLOAD·🇺🇸 United States

打ち上げ Jun 25, 2019 から Cape Canaveral Space Force Station

Loading…

次のパス (今後24時間)

TLE

最新Source: AMSAT

元期: Sep 14, 2026, 05:36 UTC

1 44339U 19036A   26257.23347634  .00010831  00000-0  10021-2 0  9995
2 44339  23.9940 238.5326 0005014 352.8597   7.1831 14.92470762386784

AllMySatでProx-1をリアルタイム追跡

Download on the App Store